Location: Leuk
(46.3174°N, 7.6341°E)
Time: 15:53:24
(UTC+00:00)

Meteor 2-17 Rocket - Pass Details

Date: 09 March 2021
Orbit: 935 x 956 km, 82.5° (Epoch: 18 April)

Event Time Altitude Azimuth Distance (km) Brightness Sun altitude
Rises 03:54:27 0° 348° (NNW) 3,605 7.5 -21.2°
Reaches altitude 10° 03:56:57 10° 346° (NNW) 2,656 6.8 -20.8°
Maximum altitude 04:02:57 67° 265° (W) 1,012 4.3 -19.8°
Drops below altitude 10° 04:08:56 10° 184° (S) 2,643 6.6 -18.8°
Sets 04:11:25 0° 182° (S) 3,585 7.3 -18.4°
